Weather Roundup
Issued by NWS

Home | Current Version | Previous Version | Graphics & Text | Print | Product List | Glossary Off
Versions: 1 2 3 4 5 6 7 8 9 10 11 12 13 14 15 16 17 18 19 20 21 22 23 24 25 26 27 28 29 30 31 32 33 34 35 36 37 38 39 40 41 42 43 44 45 46 47 48 49 50

000
NZUS93 KARX 210859
HRRWXR

CURRENT HOURLY OBSERVATIONS ACROSS
MUCH OF THE UPPER MISSISSIPPI VALLEY
NATIONAL WEATHER SERVICE LA CROSSE WI
400 AM CDT FRI JUL 21 2017


...SOUTHEAST MINNESOTA...


CITY           SKY/WX    TMP DP  RH WIND       PRES   REMARKS
ROCHESTER      CLOUDY    65  65 100 E5        29.97F
ROCHESTER/MAYO FAIR      69  69 100 E5        29.97F
WINONA         CLOUDY    64  64 100 CALM      29.97F
AUSTIN         CLOUDY    68  64  88 CALM      29.95F
ALBERT LEA     CLOUDY    72  66  83 SE5       29.94F
DODGE CENTER   CLOUDY    64  63  94 SE5       29.96F FOG
PRESTON        CLOUDY    67  64  87 SE5       29.98F
OWATONNA       CLOUDY    66  64  94 E3        29.95F
FARIBAULT      FOG       61  61 100 CALM      29.94F VSB 3/4
$$

...ELSEWHERE IN MINNESOTA...


CITY           SKY/WX    TMP DP  RH WIND       PRES   REMARKS
MINNEAPOLIS    PTCLDY    70  67  90 E7        29.95F
INTNL FALLS    MOCLDY    54  52  93 CALM      29.94F
DULUTH         CLOUDY    63  60  90 CALM      29.96F
RED WING       PTCLDY    66  64  94 CALM      29.96F
REDWOOD FALLS  MOCLDY    70  67  90 E6        29.89F
MANKATO        CLEAR     70  68  93 SE8       29.92F
WORTHINGTON    CLOUDY    73  72  96 E6        29.91F
FAIRMONT       PTCLDY    71  70  96 SE7       29.91F
$$

...SOUTHWEST WISCONSIN...


CITY           SKY/WX    TMP DP  RH WIND       PRES   REMARKS
LA CROSSE      CLOUDY    70  68  93 CALM      29.96F
PRAIRIE DU CHI MOCLDY    69  68  96 CALM      29.94F
BOSCOBEL       FOG       70  69  97 NE3       29.95F VSB 1/4
LONE ROCK      NOT AVBL
PLATTEVILLE    CLOUDY    73  73 100 E7        29.98F
FORT MC COY    FOG       59  59 100 CALM      29.99F VSB<1/4
CAMP DOUGLAS   FOG       61  61 100 CALM      29.99F VSB 1/4
MAUSTON-NEW LI CLOUDY    64  64  99 CALM      29.99S FOG
VIROQUA        FAIR      66  66 100 E6        30.00S
WIS DELLS      CLOUDY    64  63  96 CALM      30.00S FOG
$$

...ELSEWHERE IN WISCONSIN...


CITY           SKY/WX    TMP DP  RH WIND       PRES   REMARKS
MILWAUKEE      CLOUDY    74  71  91 W3        29.98R
MADISON        CLOUDY    67  66  97 CALM      29.98S FOG
GREEN BAY      CLEAR     64  64 100 NW3       29.97S
EAU CLAIRE     PTCLDY    64  64 100 SW5       29.99R FOG
BLACK RVR FLS  FOG       60  60 100 CALM      29.99S VSB<1/4
MEDFORD        FOG       61  60  99 CALM      30.01S VSB 1/4
WAUSAU         CLEAR     64  63  96 SE5       29.99S
WIS RAPIDS     FOG       63  62  97 CALM      30.02S VSB 1/4
MARSHFIELD     PTCLDY    60  58  92 CALM      30.00S FOG
RICE LAKE      MOCLDY    62  61  97 CALM      30.00F FOG
$$

...NORTHEAST IOWA...


CITY           SKY/WX    TMP DP  RH WIND       PRES   REMARKS
WATERLOO       CLOUDY    72  68  87 E3        29.93S
DUBUQUE        CLOUDY    71  68  90 S8        29.98R
DECORAH        CLOUDY    70  68  94 CALM      29.95F
MASON CITY     CLOUDY    70  69  97 E5        29.95F
CHARLES CITY   CLOUDY    72  72 100 E5        29.95F
OELWEIN        CLOUDY    70  70 100 CALM      29.96F FOG
$$

...ELSEWHERE IN IOWA...


CITY           SKY/WX    TMP DP  RH WIND       PRES   REMARKS
DES MOINES     CLOUDY    76  72  87 SE6       29.91F
IOWA CITY      LGT RAIN  73  71  93 CALM      29.94F
FORT DODGE     CLOUDY    72  70  94 SE3       29.92F
MARSHALLTOWN   CLOUDY    72  71  97 SE3       29.92F
CEDAR RAPIDS   CLOUDY    71  71 100 CALM      29.93F
$$

...NORTHERN ILLINOIS...


CITY           SKY/WX    TMP DP  RH WIND       PRES   REMARKS
CHICAGO-OHARE  CLOUDY    75  70  84 SE6       29.96F
CHICAGO-MIDWAY CLOUDY    76  70  82 CALM      29.96F
MOLINE         LGT RAIN  73  71  93 CALM      29.94S
ROCKFORD       CLOUDY    76  73  91 W3        30.01R
PEORIA         CLOUDY    79  75  87 N8G28     29.99R
$$

NOTE: "FAIR" INDICATES FEW OR NO CLOUDS BELOW 12,000 FEET WITH NO
SIGNIFICANT WEATHER AND/OR OBSTRUCTIONS TO VISIBILITY. WIND
SPEEDS ARE IN MILES-PER-HOUR.




USA.gov is the U.S. government's official web portal to all federal, state and local government web resources and services.